GW1195 Weather Reports


Display with metric or nautical units.
time (UTC)temp
F
wind
direction
speed
MPH
gust
MPH
rain 1hr
in
rain 24hr
in
rain mn
in
humidity
%
barometer
mb
20260507120043 50 0 1.0 3.0 0.00 0.00 0.00 86 1021.3
20260507114541 50 0 0.0 2.0 0.00 0.00 0.00 86 1021.4
20260507113042 51 331 0.0 2.0 0.00 0.00 0.00 87 1021.5
20260507111544 51 0 0.0 2.0 0.00 0.00 0.00 86 1021.5
20260507110037 51 0 0.0 1.0 0.00 0.00 0.00 85 1021.4
20260507104542 51 360 0.0 3.0 0.00 0.00 0.00 85 1021.5
20260507103042 51 0 0.0 2.0 0.00 0.00 0.00 85 1021.6
20260507101558 52 360 1.0 3.0 0.00 0.00 0.00 84 1021.7
20260507100042 52 0 0.0 3.0 0.00 0.00 0.00 84 1021.8
20260507094551 52 0 0.0 4.0 0.00 0.00 0.00 84 1022.0
20260507093036 52 336 0.0 2.0 0.00 0.00 0.00 83 1022.0
20260507091555 52 0 1.0 3.0 0.00 0.00 0.00 83 1022.1
20260507084541 53 0 0.0 2.0 0.00 0.00 0.00 84 1022.4
20260507083042 53 0 0.0 2.0 0.00 0.00 0.00 84 1022.4
20260507081550 53 0 0.0 2.0 0.00 0.00 0.00 84 1022.4
20260507080045 53 5 1.0 5.0 0.00 0.00 0.00 85 1022.4
20260507074544 53 0 0.0 2.0 0.00 0.00 0.00 86 1022.4
20260507073056 53 360 0.0 4.0 0.00 0.00 0.00 85 1022.3
20260507071542 53 0 0.0 2.0 0.00 0.00 0.00 84 1022.3
20260507070105 53 0 0.0 1.0 0.00 0.00 0.00 83 1022.4
20260507064546 54 335 0.0 2.0 0.00 0.00 0.00 82 1022.3
20260507063036 54 0 0.0 4.0 0.00 0.00 0.00 81 1022.3
20260507061543 54 291 0.0 4.0 0.00 0.00 0.00 81 1022.5
20260507060043 54 308 0.0 5.0 0.00 0.00 0.00 82 1022.6
20260507054546 53 348 1.0 6.0 0.00 0.00 0.00 83 1022.7
20260507053043 53 351 1.0 6.0 0.00 0.00 0.00 86 1022.8
20260507051540 54 0 0.0 2.0 0.00 0.00 0.00 87 1022.7
20260507050045 54 0 0.0 2.0 0.00 0.00 0.00 88 1022.8
20260507044547 54 313 1.0 4.0 0.00 0.00 0.00 88 1022.8
20260507043042 54 272 1.0 4.0 0.00 0.00 0.00 88 1022.8
20260507041541 54 0 2.0 6.0 0.00 0.00 0.00 88 1022.8
20260507040041 54 299 2.0 4.0 0.00 0.00 0.00 87 1022.6
20260507034538 54 300 1.0 6.0 0.00 0.00 0.00 88 1022.7
20260507033043 54 275 4.0 9.0 0.00 0.00 0.00 87 1022.6
20260507031543 54 264 3.0 10.0 0.00 0.00 0.00 87 1022.4
20260507030046 54 297 1.0 9.0 0.00 0.00 0.00 87 1022.2
20260507024538 54 5 2.0 9.0 0.00 0.00 0.00 87 1022.2
20260507023042 54 325 3.0 9.0 0.00 0.00 0.00 87 1022.3
20260507021537 55 286 2.0 8.0 0.00 0.00 0.00 88 1022.2
20260507020046 55 279 2.0 6.0 0.00 0.00 0.00 87 1022.2
20260507014553 55 340 1.0 8.0 0.00 0.00 0.00 87 1022.3
20260507013041 55 346 0.0 7.0 0.00 0.00 0.00 87 1022.4
20260507011541 55 0 3.0 9.0 0.00 0.00 0.00 86 1022.4
20260507010042 55 298 4.0 8.0 0.00 0.00 0.00 86 1022.5
20260507004541 55 292 3.0 8.0 0.00 0.00 0.00 87 1022.5
20260507003035 55 282 2.0 8.0 0.00 0.00 0.00 87 1022.6
20260507001543 56 286 2.0 7.0 0.00 0.00 0.00 86 1022.6
20260507000044 56 355 3.0 8.0 0.00 0.00 0.00 85 1022.6
20260506234541 56 299 2.0 8.0 0.00 0.00 0.00 85 1022.6
20260506233040 56 315 3.0 9.0 0.00 0.00 0.00 85 1022.6
20260506231537 56 329 2.0 8.0 0.00 0.00 0.00 84 1022.7
20260506230036 57 315 2.0 7.0 0.00 0.00 0.00 83 1022.8
20260506224543 57 275 1.0 5.0 0.00 0.00 0.00 83 1022.9
20260506223041 57 313 1.0 6.0 0.00 0.00 0.00 85 1023.0
20260506221544 57 259 3.0 9.0 0.00 0.00 0.00 84 1023.2
20260506220042 57 0 2.0 10.0 0.00 0.00 0.00 83 1022.9
20260506214540 58 276 3.0 9.0 0.00 0.00 0.00 80 1022.9
20260506213036 58 0 1.0 7.0 0.00 0.00 0.00 79 1022.8
20260506211542 59 0 2.0 6.0 0.00 0.00 0.00 76 1022.9
20260506210044 59 226 0.0 4.0 0.00 0.00 0.00 77 1022.7
20260506204541 58 257 1.0 4.0 0.00 0.00 0.00 77 1022.7
20260506203048 58 300 2.0 6.0 0.00 0.00 0.00 78 1022.6
20260506201559 58 289 1.0 4.0 0.00 0.00 0.00 79 1022.6
20260506200040 58 268 1.0 6.0 0.00 0.00 0.00 77 1022.6
20260506194540 58 227 2.0 5.0 0.00 0.00 0.00 77 1022.6
20260506193050 58 0 2.0 8.0 0.00 0.00 0.00 78 1022.6
20260506191543 57 272 2.0 7.0 0.00 0.00 0.00 78 1022.6
20260506190040 57 281 3.0 8.0 0.00 0.00 0.00 79 1022.6
20260506184547 57 259 2.0 7.0 0.00 0.00 0.00 79 1022.5
20260506183042 57 242 1.0 6.0 0.00 0.00 0.00 80 1022.5
20260506181541 57 0 2.0 6.0 0.00 0.00 0.00 80 1022.3
20260506180040 57 272 2.0 6.0 0.00 0.00 0.00 80 1022.2
20260506174541 57 270 1.0 6.0 0.00 0.00 0.00 80 1022.0
20260506173054 57 0 0.0 4.0 0.00 0.00 0.00 81 1021.9
20260506171550 56 209 0.0 3.0 0.00 0.00 0.00 81 1021.9
20260506170045 56 0 0.0 3.0 0.00 0.00 0.00 82 1021.8
20260506164543 55 207 0.0 3.0 0.00 0.00 0.00 83 1021.6
20260506163058 55 153 1.0 4.0 0.00 0.00 0.00 82 1021.6
20260506161544 55 166 0.0 4.0 0.00 0.00 0.00 83 1021.6
20260506160042 55 0 1.0 3.0 0.00 0.00 0.00 84 1021.6
20260506154552 55 0 0.0 2.0 0.00 0.00 0.00 87 1021.5
20260506153042 54 159 1.0 4.0 0.00 0.00 0.00 88 1021.3
20260506151543 54 0 0.0 3.0 0.00 0.00 0.00 90 1021.3
20260506150042 53 191 1.0 3.0 0.00 0.00 0.00 91 1021.0
20260506144540 53 0 0.0 3.0 0.00 0.00 0.00 91 1020.8
20260506143041 53 0 1.0 5.0 0.00 0.00 0.00 91 1020.8
20260506141548 53 0 0.0 2.0 0.00 0.00 0.00 91 1021.0
20260506140053 53 0 0.0 2.0 0.00 0.00 0.00 91 1021.2
20260506134541 53 0 0.0 3.0 0.00 0.00 0.00 91 1021.0
20260506133040 53 0 0.0 2.0 0.00 0.00 0.00 91 1021.1
20260506131541 53 0 0.0 3.0 0.00 0.00 0.00 91 1020.7
20260506130041 53 184 0.0 3.0 0.00 0.00 0.00 91 1020.6
20260506124545 53 0 0.0 2.0 0.00 0.00 0.00 91 1020.6
20260506123043 53 0 0.0 2.0 0.00 0.00 0.00 91 1020.4
20260506121543 53 0 0.0 3.0 0.00 0.00 0.00 91 1020.4